When you browse on this site, cookies collect data to enhance your experience and personalize the content and advertising you see.
Visit our Privacy Policy to learn more. By continuing to use the site, you agree to this use of cookies and data.
  • In Czech Republic
  • List of Countries
  • For 7 days
  • Water Temperature
  • Satellite Maps
  • Weather Map
  • Weather Widgets
  • user-avatar
    Login

    Hourly Weather Melbourne

    Today, 24 January, Thursday

    Time Temperature Precipitation Wind Pressure Humidity
    00:00 +19°C° 0 mm 2 mps 759 mmHg 84%
    01:00 +20°C° 0 mm 1 mps 759 mmHg 86%
    02:00 +20°C° 0 mm 1 mps 759 mmHg 87%
    03:00 +20°C° 0 mm 1 mps 759 mmHg 89%
    04:00 +19°C° 0 mm 1 mps 759 mmHg 90%
    05:00 +20°C° 0 mm 1 mps 759 mmHg 86%
    06:00 +19°C° 0 mm 0 mps 759 mmHg 83%
    07:00 +19°C° 0 mm 0 mps 759 mmHg 79%
    08:00 +25°C° 0 mm 1 mps 759 mmHg 65%
    09:00 +29°C° 0 mm 1 mps 758 mmHg 51%
    10:00 +32°C° 0 mm 1 mps 758 mmHg 37%
    11:00 +35°C° 0 mm 1 mps 757 mmHg 31%
    12:00 +39°C° 0 mm 1 mps 757 mmHg 25%
    13:00 +42°C° 0 mm 1 mps 756 mmHg 19%
    14:00 +43°C° 0 mm 1 mps 755 mmHg 17%
    15:00 +43°C° 0 mm 2 mps 755 mmHg 15%
    16:00 +45°C° 0 mm 2 mps 754 mmHg 14%
    17:00 +43°C° 0 mm 2 mps 754 mmHg 16%
    18:00 +41°C° 0 mm 2 mps 754 mmHg 19%
    19:00 +40°C° 0 mm 2 mps 754 mmHg 21%
    20:00 +38°C° 0 mm 2 mps 754 mmHg 25%
    21:00 +36°C° 0 mm 3 mps 754 mmHg 29%
    22:00 +34°C° 0 mm 3 mps 754 mmHg 32%
    23:00 +34°C° 0 mm 3 mps 754 mmHg 32%

    Tomorrow, 25 January, Friday

    Time Temperature Precipitation Wind Pressure Humidity
    00:00 +34°C° 0 mm 3 mps 753 mmHg 31%
    01:00 +34°C° 0 mm 3 mps 753 mmHg 31%
    02:00 +34°C° 0 mm 4 mps 752 mmHg 31%
    03:00 +34°C° 0 mm 5 mps 752 mmHg 30%
    04:00 +34°C° 0 mm 7 mps 751 mmHg 30%
    05:00 +35°C° 0 mm 7 mps 752 mmHg 33%
    06:00 +35°C° 0 mm 8 mps 752 mmHg 36%
    07:00 +35°C° 0 mm 8 mps 752 mmHg 38%
    08:00 +39°C° 0 mm 8 mps 752 mmHg 33%
    09:00 +41°C° 0 mm 8 mps 752 mmHg 28%
    10:00 +45°C° 0 mm 8 mps 752 mmHg 23%
    11:00 +46°C° 0 mm 8 mps 752 mmHg 20%
    12:00 +49°C° 0 mm 7 mps 751 mmHg 16%
    13:00 +51°C° 0 mm 7 mps 751 mmHg 13%
    14:00 +46°C° 0 mm 7 mps 750 mmHg 22%
    15:00 +41°C° 0 mm 6 mps 750 mmHg 30%
    16:00 +36°C° 0 mm 6 mps 750 mmHg 38%
    17:00 +33°C° 0 mm 5 mps 751 mmHg 46%
    18:00 +29°C° 0 mm 4 mps 751 mmHg 54%
    19:00 +26°C° 0 mm 3 mps 752 mmHg 62%
    20:00 +26°C° 0 mm 3 mps 753 mmHg 62%
    21:00 +26°C° 0 mm 3 mps 754 mmHg 63%
    22:00 +25°C° 0 mm 3 mps 755 mmHg 63%
    23:00 +25°C° 0 mm 2 mps 755 mmHg 64%

    Day after tomorrow, 26 January, Saturday

    Time Temperature Precipitation Wind Pressure Humidity
    00:00 +25°C° 0 mm 2 mps 754 mmHg 65%
    01:00 +25°C° 0 mm 2 mps 754 mmHg 66%
    02:00 +24°C° 0 mm 2 mps 754 mmHg 69%
    03:00 +23°C° 0 mm 2 mps 754 mmHg 71%
    04:00 +23°C° 0 mm 2 mps 754 mmHg 73%
    05:00 +23°C° 0 mm 2 mps 754 mmHg 73%
    06:00 +23°C° 0 mm 2 mps 755 mmHg 72%
    07:00 +23°C° 0 mm 1 mps 755 mmHg 72%
    08:00 +25°C° 0 mm 1 mps 755 mmHg 65%
    09:00 +26°C° 0 mm 1 mps 755 mmHg 57%
    10:00 +28°C° 0 mm 2 mps 754 mmHg 50%
    11:00 +30°C° 0 mm 2 mps 754 mmHg 44%
    12:00 +31°C° 0 mm 2 mps 754 mmHg 39%
    13:00 +34°C° 0 mm 2 mps 754 mmHg 33%
    14:00 +35°C° 0 mm 3 mps 753 mmHg 32%
    15:00 +35°C° 0 mm 4 mps 753 mmHg 30%
    16:00 +36°C° 0 mm 4 mps 753 mmHg 29%
    17:00 +33°C° 0 mm 4 mps 753 mmHg 40%
    18:00 +28°C° 0 mm 5 mps 753 mmHg 52%
    19:00 +25°C° 0 mm 5 mps 754 mmHg 63%
    20:00 +23°C° 0.1 mm 4 mps 754 mmHg 66%
    21:00 +21°C° 0.1 mm 4 mps 755 mmHg 70%
    22:00 +20°C° 0.1 mm 4 mps 756 mmHg 73%
    23:00 +20°C° 0 mm 3 mps 756 mmHg 72%

    27 January, Sunday

    Time Temperature Precipitation Wind Pressure Humidity
    00:00 +20°C° 0 mm 3 mps 756 mmHg 71%
    01:00 +20°C° 0 mm 2 mps 756 mmHg 70%
    02:00 +20°C° 0 mm 2 mps 756 mmHg 70%
    03:00 +20°C° 0 mm 1 mps 756 mmHg 69%
    04:00 +20°C° 0 mm 1 mps 757 mmHg 69%
    05:00 +20°C° 0 mm 1 mps 757 mmHg 68%
    06:00 +19°C° 0 mm 2 mps 757 mmHg 68%
    07:00 +19°C° 0 mm 2 mps 757 mmHg 67%
    08:00 +20°C° 0 mm 2 mps 757 mmHg 61%
    09:00 +22°C° 0 mm 3 mps 757 mmHg 56%
    10:00 +24°C° 0 mm 3 mps 758 mmHg 50%
    11:00 +25°C° 0 mm 3 mps 757 mmHg 45%
    12:00 +26°C° 0 mm 2 mps 757 mmHg 40%
    13:00 +27°C° 0 mm 2 mps 757 mmHg 35%
    14:00 +27°C° 0 mm 2 mps 757 mmHg 33%
    15:00 +28°C° 0 mm 2 mps 757 mmHg 31%
    16:00 +28°C° 0 mm 2 mps 757 mmHg 29%
    17:00 +27°C° 0 mm 3 mps 757 mmHg 35%
    18:00 +26°C° 0 mm 4 mps 757 mmHg 40%
    19:00 +23°C° 0 mm 5 mps 757 mmHg 46%
    20:00 +22°C° 0 mm 4 mps 758 mmHg 53%
    21:00 +21°C° 0 mm 4 mps 759 mmHg 60%
    22:00 +20°C° 0 mm 3 mps 759 mmHg 67%
    23:00 +19°C° 0 mm 3 mps 759 mmHg 69%

    28 January, Monday

    Time Temperature Precipitation Wind Pressure Humidity
    00:00 +19°C° 0 mm 2 mps 759 mmHg 70%
    01:00 +18°C° 0 mm 2 mps 759 mmHg 72%
    02:00 +18°C° 0 mm 2 mps 759 mmHg 74%
    03:00 +19°C° 0 mm 1 mps 759 mmHg 75%
    04:00 +18°C° 0 mm 1 mps 758 mmHg 77%
    05:00 +19°C° 0 mm 1 mps 758 mmHg 75%
    06:00 +17°C° 0 mm 0 mps 758 mmHg 74%
    07:00 +18°C° 0 mm 0 mps 758 mmHg 72%
    08:00 +21°C° 0 mm 0 mps 758 mmHg 60%
    09:00 +26°C° 0 mm 1 mps 758 mmHg 47%
    10:00 +29°C° 0 mm 1 mps 758 mmHg 35%
    11:00 +31°C° 0 mm 1 mps 757 mmHg 28%
    12:00 +35°C° 0 mm 2 mps 757 mmHg 22%
    13:00 +37°C° 0 mm 2 mps 757 mmHg 16%
    14:00 +37°C° 0 mm 3 mps 756 mmHg 17%
    15:00 +36°C° 0 mm 5 mps 756 mmHg 19%
    16:00 +36°C° 0 mm 6 mps 756 mmHg 20%
    17:00 +33°C° 0 mm 5 mps 756 mmHg 31%
    18:00 +29°C° 0 mm 5 mps 757 mmHg 42%
    19:00 +26°C° 0 mm 4 mps 757 mmHg 53%
    20:00 +23°C° 0 mm 4 mps 758 mmHg 58%
    21:00 +22°C° 0 mm 4 mps 758 mmHg 64%
    22:00 +21°C° 0 mm 3 mps 759 mmHg 69%
    23:00 +20°C° 0 mm 3 mps 759 mmHg 72%

    29 January, Tuesday

    Time Temperature Precipitation Wind Pressure Humidity
    00:00 +19°C° 0 mm 2 mps 759 mmHg 74%
    01:00 +19°C° 0 mm 2 mps 759 mmHg 77%
    02:00 +19°C° 0 mm 1 mps 759 mmHg 79%
    03:00 +19°C° 0 mm 1 mps 759 mmHg 81%
    04:00 +19°C° 0 mm 1 mps 759 mmHg 83%
    05:00 +19°C° 0 mm 1 mps 759 mmHg 80%
    06:00 +20°C° 0 mm 1 mps 759 mmHg 77%
    07:00 +20°C° 0 mm 1 mps 759 mmHg 75%
    08:00 +23°C° 0 mm 1 mps 759 mmHg 63%
    09:00 +26°C° 0 mm 1 mps 759 mmHg 51%
    10:00 +29°C° 0 mm 1 mps 759 mmHg 40%
    11:00 +31°C° 0 mm 2 mps 759 mmHg 35%
    12:00 +32°C° 0 mm 2 mps 758 mmHg 30%
    13:00 +35°C° 0 mm 3 mps 758 mmHg 25%
    14:00 +36°C° 0 mm 3 mps 757 mmHg 23%
    15:00 +36°C° 0 mm 4 mps 757 mmHg 22%
    16:00 +36°C° 0 mm 4 mps 757 mmHg 21%
    17:00 +33°C° 0 mm 4 mps 757 mmHg 33%
    18:00 +29°C° 0 mm 5 mps 757 mmHg 44%
    19:00 +25°C° 0 mm 5 mps 758 mmHg 56%
    20:00 +23°C° 0 mm 4 mps 758 mmHg 60%
    21:00 +22°C° 0 mm 3 mps 759 mmHg 64%
    22:00 +21°C° 0 mm 3 mps 760 mmHg 68%
    23:00 +20°C° 0 mm 2 mps 759 mmHg 72%
    Show more